| time (UTC) | temp C | wind direction | speed KPH | gust KPH | rain 1hr cm | rain 24hr cm | rain mn cm | humidity % | barometer mb |
| 20260505125011 | 13 | 202 | 3.2 | 16.1 | 0.00 | 1.32 | 1.32 | 94 | 1007.3 |
| 20260505124524 | 13 | 220 | 6.4 | 12.9 | 0.00 | 1.32 | 1.32 | 94 | 1007.3 |
| 20260505124011 | 13 | 190 | 4.8 | 17.7 | 0.00 | 1.32 | 1.32 | 94 | 1007.3 |
| 20260505123508 | 13 | 194 | 8.0 | 14.5 | 0.00 | 1.32 | 1.32 | 94 | 1007.2 |
| 20260505123049 | 13 | 163 | 6.4 | 11.3 | 0.00 | 1.32 | 1.32 | 94 | 1007.3 |
| 20260505122510 | 13 | 255 | 3.2 | 9.7 | 0.00 | 1.32 | 1.32 | 94 | 1007.3 |
| 20260505122007 | 13 | 188 | 3.2 | 9.7 | 0.00 | 1.32 | 1.32 | 94 | 1007.3 |
| 20260505121529 | 13 | 228 | 3.2 | 9.7 | 0.00 | 1.32 | 1.32 | 94 | 1007.3 |
| 20260505121007 | 13 | 105 | 1.6 | 9.7 | 0.00 | 1.32 | 1.32 | 94 | 1007.1 |
| 20260505120507 | 13 | 171 | 3.2 | 8.0 | 0.00 | 1.32 | 1.32 | 94 | 1007.2 |
| 20260505120027 | 13 | 214 | 3.2 | 8.0 | 0.00 | 1.32 | 1.32 | 94 | 1007.3 |
| 20260505115510 | 13 | 134 | 0.0 | 4.8 | 0.00 | 1.32 | 1.32 | 93 | 1007.2 |
| 20260505115020 | 13 | 224 | 0.0 | 4.8 | 0.00 | 1.32 | 1.32 | 93 | 1007.2 |
| 20260505114531 | 13 | 209 | 1.6 | 3.2 | 0.00 | 1.32 | 1.32 | 93 | 1007.2 |
| 20260505114010 | 13 | 115 | 1.6 | 6.4 | 0.00 | 1.32 | 1.32 | 93 | 1007.2 |
| 20260505113508 | 13 | 217 | 3.2 | 6.4 | 0.00 | 1.32 | 1.32 | 93 | 1007.2 |
| 20260505113033 | 13 | 219 | 1.6 | 6.4 | 0.00 | 1.32 | 1.32 | 93 | 1007.2 |
| 20260505112507 | 13 | 113 | 1.6 | 6.4 | 0.00 | 1.32 | 1.32 | 93 | 1007.3 |
| 20260505112011 | 13 | 160 | 3.2 | 4.8 | 0.00 | 1.32 | 1.32 | 93 | 1007.4 |
| 20260505111549 | 13 | 223 | 1.6 | 4.8 | 0.00 | 1.32 | 1.32 | 93 | 1007.5 |
| 20260505111008 | 13 | 13 | 0.0 | 3.2 | 0.00 | 1.32 | 1.32 | 93 | 1007.8 |
| 20260505110501 | 13 | 35 | 1.6 | 3.2 | 0.03 | 1.32 | 1.32 | 93 | 1007.9 |
| 20260505102003 | 13 | 309 | 4.8 | 9.7 | 0.41 | 1.32 | 1.32 | 93 | 1008.1 |
| 20260505101532 | 13 | 241 | 1.6 | 4.8 | 0.43 | 1.32 | 1.32 | 92 | 1007.7 |
| 20260505101010 | 13 | 30 | 3.2 | 4.8 | 0.43 | 1.32 | 1.32 | 92 | 1007.4 |
| 20260505100510 | 13 | 305 | 0.0 | 8.0 | 0.46 | 1.30 | 1.30 | 92 | 1007.6 |
| 20260505100012 | 13 | 173 | 3.2 | 8.0 | 0.43 | 1.22 | 1.22 | 92 | 1007.5 |
| 20260505095505 | 13 | 209 | 3.2 | 9.7 | 0.43 | 1.09 | 1.09 | 92 | 1007.6 |
| 20260505095008 | 13 | 88 | 3.2 | 9.7 | 0.58 | 1.09 | 1.09 | 92 | 1007.4 |
| 20260505094502 | 13 | 256 | 1.6 | 4.8 | 0.79 | 1.07 | 1.07 | 92 | 1008.0 |
| 20260505094002 | 13 | 282 | 1.6 | 4.8 | 0.91 | 1.07 | 1.07 | 92 | 1007.6 |
| 20260505093512 | 13 | 115 | 3.2 | 8.0 | 0.86 | 1.02 | 1.02 | 92 | 1007.1 |
| 20260505093028 | 13 | 246 | 3.2 | 8.0 | 0.79 | 0.91 | 0.91 | 92 | 1007.6 |
| 20260505092510 | 13 | 309 | 1.6 | 9.7 | 0.79 | 0.91 | 0.91 | 91 | 1006.8 |
| 20260505092002 | 13 | 342 | 3.2 | 17.7 | 0.79 | 0.91 | 0.91 | 91 | 1006.5 |
| 20260505091507 | 13 | 37 | 9.7 | 17.7 | 0.76 | 0.89 | 0.89 | 91 | 1006.5 |
| 20260505091011 | 14 | 5 | 6.4 | 11.3 | 0.81 | 0.89 | 0.89 | 90 | 1007.6 |
| 20260505090508 | 14 | 341 | 3.2 | 12.9 | 0.79 | 0.84 | 0.84 | 90 | 1008.4 |
| 20260505090012 | 14 | 327 | 3.2 | 14.5 | 0.76 | 0.79 | 0.79 | 89 | 1008.4 |
| 20260505085504 | 14 | 284 | 6.4 | 14.5 | 0.64 | 0.66 | 0.66 | 89 | 1008.4 |
| 20260505085010 | 14 | 306 | 6.4 | 14.5 | 0.51 | 0.51 | 0.51 | 89 | 1008.1 |
| 20260505084513 | 14 | 274 | 8.0 | 14.5 | 0.28 | 0.28 | 0.28 | 88 | 1007.7 |
| 20260505084003 | 14 | 317 | 8.0 | 12.9 | 0.15 | 0.15 | 0.15 | 88 | 1006.5 |
| 20260505083502 | 15 | 342 | 8.0 | 12.9 | 0.15 | 0.15 | 0.15 | 87 | 1006.6 |
| 20260505083033 | 15 | 323 | 1.6 | 14.5 | 0.13 | 0.13 | 0.13 | 86 | 1006.8 |
| 20260505082507 | 15 | 180 | 3.2 | 22.5 | 0.13 | 0.13 | 0.13 | 86 | 1005.9 |
| 20260505082003 | 15 | 188 | 8.0 | 22.5 | 0.13 | 0.13 | 0.13 | 84 | 1006.0 |
| 20260505081507 | 15 | 179 | 4.8 | 19.3 | 0.13 | 0.13 | 0.13 | 84 | 1006.2 |
| 20260505081014 | 15 | 196 | 6.4 | 17.7 | 0.08 | 0.08 | 0.08 | 82 | 1006.3 |
| 20260505080513 | 15 | 209 | 6.4 | 17.7 | 0.05 | 0.05 | 0.05 | 81 | 1006.7 |
| 20260505080035 | 16 | 206 | 4.8 | 11.3 | 0.03 | 0.03 | 0.03 | 79 | 1007.0 |
| 20260505075502 | 16 | 232 | 4.8 | 12.9 | 0.03 | 0.03 | 0.03 | 78 | 1007.1 |
| 20260505075003 | 16 | 253 | 4.8 | 12.9 | 0.00 | 0.00 | 0.00 | 75 | 1007.3 |
| 20260505074527 | 16 | 261 | 4.8 | 12.9 | 0.00 | 0.00 | 0.00 | 75 | 1007.5 |
| 20260505074009 | 16 | 253 | 3.2 | 14.5 | 0.00 | 0.00 | 0.00 | 74 | 1007.1 |
| 20260505073510 | 16 | 300 | 3.2 | 14.5 | 0.00 | 0.00 | 0.00 | 75 | 1007.0 |
| 20260505073021 | 16 | 182 | 6.4 | 22.5 | 0.00 | 0.00 | 0.00 | 74 | 1006.8 |
| 20260505072506 | 16 | 176 | 8.0 | 33.8 | 0.00 | 0.00 | 0.00 | 74 | 1006.5 |
| 20260505072010 | 16 | 198 | 9.7 | 33.8 | 0.00 | 0.00 | 0.00 | 73 | 1006.0 |
| 20260505071503 | 16 | 209 | 12.9 | 25.7 | 0.00 | 0.00 | 0.00 | 72 | 1006.3 |
| 20260505071003 | 16 | 194 | 8.0 | 22.5 | 0.00 | 0.00 | 0.00 | 71 | 1006.5 |
| 20260505070510 | 16 | 182 | 8.0 | 22.5 | 0.00 | 0.00 | 0.00 | 72 | 1006.8 |
| 20260505070028 | 16 | 186 | 9.7 | 19.3 | 0.00 | 0.00 | 0.00 | 72 | 1006.8 |
| 20260505065509 | 16 | 176 | 6.4 | 24.1 | 0.00 | 0.00 | 0.00 | 71 | 1006.9 |
| 20260505065004 | 16 | 197 | 11.3 | 24.1 | 0.00 | 0.00 | 0.00 | 71 | 1007.1 |
| 20260505064511 | 16 | 188 | 8.0 | 17.7 | 0.00 | 0.00 | 0.00 | 71 | 1007.3 |
| 20260505064010 | 16 | 171 | 6.4 | 17.7 | 0.00 | 0.00 | 0.00 | 71 | 1007.4 |
| 20260505063510 | 16 | 208 | 8.0 | 20.9 | 0.00 | 0.00 | 0.00 | 71 | 1007.4 |
| 20260505063018 | 16 | 199 | 9.7 | 20.9 | 0.00 | 0.00 | 0.00 | 71 | 1007.7 |
| 20260505062508 | 16 | 198 | 9.7 | 24.1 | 0.00 | 0.00 | 0.00 | 71 | 1007.7 |
| 20260505062004 | 16 | 169 | 9.7 | 24.1 | 0.00 | 0.00 | 0.00 | 71 | 1007.7 |
| 20260505061504 | 16 | 171 | 12.9 | 22.5 | 0.00 | 0.00 | 0.00 | 72 | 1007.7 |
| 20260505061006 | 16 | 183 | 9.7 | 19.3 | 0.00 | 0.00 | 0.00 | 72 | 1007.8 |
| 20260505060504 | 16 | 160 | 8.0 | 20.9 | 0.00 | 0.00 | 0.00 | 72 | 1007.7 |
| 20260505060029 | 16 | 188 | 9.7 | 20.9 | 0.00 | 0.00 | 0.00 | 72 | 1007.9 |
| 20260505055512 | 16 | 209 | 8.0 | 19.3 | 0.00 | 0.00 | 0.00 | 72 | 1007.9 |
| 20260505055003 | 16 | 137 | 6.4 | 17.7 | 0.00 | 0.00 | 0.00 | 72 | 1008.0 |
| 20260505054511 | 16 | 147 | 9.7 | 17.7 | 0.00 | 0.00 | 0.00 | 72 | 1008.0 |
| 20260505054008 | 16 | 178 | 8.0 | 17.7 | 0.00 | 0.00 | 0.00 | 72 | 1007.9 |
| 20260505053514 | 16 | 194 | 6.4 | 19.3 | 0.00 | 0.00 | 0.00 | 72 | 1007.9 |
| 20260505053026 | 16 | 184 | 8.0 | 19.3 | 0.00 | 0.00 | 0.00 | 72 | 1007.9 |
| 20260505052508 | 16 | 183 | 9.7 | 16.1 | 0.00 | 0.00 | 0.00 | 72 | 1007.9 |
| 20260505052008 | 16 | 191 | 6.4 | 14.5 | 0.00 | 0.00 | 0.00 | 72 | 1007.9 |
| 20260505051519 | 16 | 203 | 8.0 | 22.5 | 0.00 | 0.00 | 0.00 | 72 | 1008.1 |
| 20260505051007 | 16 | 178 | 11.3 | 20.9 | 0.00 | 0.00 | 0.00 | 72 | 1008.2 |
| 20260505050511 | 16 | 218 | 6.4 | 19.3 | 0.00 | 0.00 | 0.00 | 72 | 1008.2 |
| 20260505041528 | 17 | 221 | 4.8 | 17.7 | 0.00 | 0.00 | 0.00 | 70 | 1008.8 |
| 20260505041007 | 17 | 204 | 4.8 | 17.7 | 0.00 | 0.00 | 0.00 | 70 | 1008.8 |
| 20260505040507 | 17 | 198 | 4.8 | 14.5 | 0.00 | 0.00 | 0.00 | 70 | 1008.9 |
| 20260505040022 | 17 | 194 | 4.8 | 14.5 | 0.00 | 0.00 | 0.00 | 70 | 1008.9 |
| 20260505035506 | 17 | 175 | 6.4 | 14.5 | 0.00 | 0.00 | 0.00 | 70 | 1009.0 |
| 20260505035007 | 17 | 175 | 6.4 | 19.3 | 0.00 | 0.00 | 0.00 | 70 | 1009.1 |
| 20260505034507 | 17 | 184 | 3.2 | 19.3 | 0.00 | 0.00 | 0.00 | 70 | 1009.2 |
| 20260505034003 | 17 | 164 | 4.8 | 19.3 | 0.00 | 0.00 | 0.00 | 70 | 1009.2 |
| 20260505033510 | 17 | 185 | 3.2 | 19.3 | 0.00 | 0.00 | 0.00 | 69 | 1009.3 |
| 20260505033031 | 17 | 184 | 4.8 | 14.5 | 0.00 | 0.00 | 0.00 | 69 | 1009.5 |
| 20260505032511 | 17 | 196 | 6.4 | 16.1 | 0.00 | 0.00 | 0.00 | 69 | 1009.4 |
| 20260505032004 | 17 | 184 | 3.2 | 17.7 | 0.00 | 0.00 | 0.00 | 69 | 1009.4 |
| 20260505031515 | 17 | 180 | 8.0 | 17.7 | 0.00 | 0.00 | 0.00 | 69 | 1009.5 |
| 20260505031008 | 17 | 196 | 3.2 | 16.1 | 0.00 | 0.00 | 0.00 | 69 | 1009.3 |
| 20260505030510 | 17 | 244 | 8.0 | 14.5 | 0.00 | 0.00 | 0.00 | 68 | 1009.3 |
| 20260505030019 | 17 | 207 | 4.8 | 16.1 | 0.00 | 0.00 | 0.00 | 68 | 1009.2 |
| 20260505025506 | 17 | 155 | 8.0 | 17.7 | 0.00 | 0.00 | 0.00 | 68 | 1009.1 |
| 20260505025006 | 17 | 250 | 6.4 | 17.7 | 0.00 | 0.00 | 0.00 | 68 | 1009.0 |
| 20260505024536 | 17 | 190 | 9.7 | 24.1 | 0.00 | 0.00 | 0.00 | 68 | 1009.0 |
| 20260505024006 | 17 | 176 | 9.7 | 22.5 | 0.00 | 0.00 | 0.00 | 68 | 1008.9 |
| 20260505023503 | 17 | 122 | 8.0 | 19.3 | 0.00 | 0.00 | 0.00 | 68 | 1008.6 |
| 20260505023024 | 17 | 227 | 8.0 | 20.9 | 0.00 | 0.00 | 0.00 | 68 | 1008.5 |
| 20260505022517 | 17 | 212 | 6.4 | 22.5 | 0.00 | 0.00 | 0.00 | 67 | 1008.5 |
| 20260505022011 | 17 | 166 | 9.7 | 22.5 | 0.00 | 0.00 | 0.00 | 67 | 1008.3 |
| 20260505021514 | 17 | 156 | 6.4 | 22.5 | 0.00 | 0.00 | 0.00 | 67 | 1008.3 |
| 20260505021004 | 17 | 180 | 8.0 | 22.5 | 0.00 | 0.00 | 0.00 | 67 | 1008.2 |
| 20260505020506 | 17 | 239 | 8.0 | 22.5 | 0.00 | 0.00 | 0.00 | 67 | 1008.2 |
| 20260505020015 | 17 | 175 | 11.3 | 22.5 | 0.00 | 0.00 | 0.00 | 67 | 1008.2 |
| 20260505015511 | 17 | 178 | 8.0 | 24.1 | 0.00 | 0.00 | 0.00 | 67 | 1008.2 |
| 20260505015008 | 17 | 159 | 8.0 | 24.1 | 0.00 | 0.00 | 0.00 | 67 | 1008.2 |
| 20260505014525 | 17 | 173 | 9.7 | 20.9 | 0.00 | 0.00 | 0.00 | 66 | 1008.1 |
| 20260505014008 | 18 | 197 | 11.3 | 22.5 | 0.00 | 0.00 | 0.00 | 66 | 1008.1 |
| 20260505013512 | 18 | 201 | 11.3 | 22.5 | 0.00 | 0.00 | 0.00 | 66 | 1008.1 |
| 20260505013027 | 18 | 188 | 9.7 | 24.1 | 0.00 | 0.00 | 0.00 | 66 | 1008.1 |
| 20260505012510 | 18 | 175 | 6.4 | 24.1 | 0.00 | 0.00 | 0.00 | 66 | 1008.1 |
| 20260505012010 | 18 | 182 | 9.7 | 24.1 | 0.00 | 0.00 | 0.00 | 65 | 1008.1 |
| 20260505011511 | 18 | 200 | 11.3 | 22.5 | 0.00 | 0.00 | 0.00 | 65 | 1008.1 |
| 20260505011005 | 18 | 174 | 6.4 | 19.3 | 0.00 | 0.00 | 0.00 | 64 | 1007.9 |
| 20260505010506 | 18 | 137 | 4.8 | 19.3 | 0.00 | 0.00 | 0.00 | 64 | 1008.0 |
| 20260505010016 | 18 | 220 | 11.3 | 19.3 | 0.00 | 0.00 | 0.00 | 63 | 1008.0 |
| 20260505005507 | 18 | 96 | 8.0 | 17.7 | 0.00 | 0.00 | 0.00 | 63 | 1008.0 |
| 20260505005008 | 18 | 203 | 4.8 | 17.7 | 0.00 | 0.00 | 0.00 | 62 | 1008.0 |
| 20260505004522 | 19 | 171 | 9.7 | 25.7 | 0.00 | 0.00 | 0.00 | 61 | 1007.9 |
| 20260505004009 | 19 | 155 | 11.3 | 25.7 | 0.00 | 0.00 | 0.00 | 61 | 1007.9 |
| 20260505003513 | 19 | 184 | 8.0 | 20.9 | 0.00 | 0.00 | 0.00 | 61 | 1008.0 |
| 20260505003023 | 19 | 159 | 11.3 | 29.0 | 0.00 | 0.00 | 0.00 | 60 | 1007.9 |
| 20260505002515 | 20 | 202 | 9.7 | 29.0 | 0.00 | 0.00 | 0.00 | 59 | 1007.8 |
| 20260505002010 | 20 | 197 | 9.7 | 25.7 | 0.00 | 0.00 | 0.00 | 60 | 1007.9 |
| 20260505001534 | 20 | 201 | 12.9 | 25.7 | 0.00 | 0.00 | 0.00 | 59 | 1007.8 |
| 20260505001005 | 20 | 197 | 12.9 | 25.7 | 0.00 | 0.00 | 0.00 | 59 | 1007.9 |
| 20260505000504 | 20 | 205 | 12.9 | 27.4 | 0.00 | 0.00 | 0.00 | 58 | 1007.8 |
| 20260505000027 | 20 | 160 | 12.9 | 27.4 | 0.00 | 0.00 | 0.00 | 58 | 1007.8 |
| 20260504235509 | 21 | 209 | 4.8 | 22.5 | 0.00 | 0.00 | 0.00 | 59 | 1007.7 |
| 20260504235004 | 21 | 200 | 6.4 | 22.5 | 0.00 | 0.00 | 0.00 | 57 | 1007.6 |
| 20260504234520 | 21 | 158 | 9.7 | 20.9 | 0.00 | 0.00 | 0.00 | 57 | 1007.6 |
| 20260504234007 | 21 | 123 | 9.7 | 19.3 | 0.00 | 0.00 | 0.00 | 56 | 1007.7 |
| 20260504233510 | 21 | 211 | 6.4 | 25.7 | 0.00 | 0.00 | 0.00 | 56 | 1007.8 |
| 20260504233024 | 21 | 184 | 9.7 | 25.7 | 0.00 | 0.00 | 0.00 | 55 | 1007.9 |
| 20260504232508 | 21 | 177 | 9.7 | 24.1 | 0.00 | 0.00 | 0.00 | 55 | 1007.9 |
| 20260504232012 | 21 | 220 | 9.7 | 38.6 | 0.00 | 0.00 | 0.00 | 54 | 1007.9 |
| 20260504231530 | 21 | 132 | 14.5 | 38.6 | 0.00 | 0.00 | 0.00 | 54 | 1008.1 |
| 20260504231014 | 21 | 155 | 14.5 | 27.4 | 0.00 | 0.00 | 0.00 | 54 | 1008.1 |
| 20260504230510 | 22 | 178 | 9.7 | 22.5 | 0.00 | 0.00 | 0.00 | 54 | 1008.1 |
| 20260504230027 | 22 | 204 | 11.3 | 27.4 | 0.00 | 0.00 | 0.00 | 53 | 1008.1 |
| 20260504225503 | 22 | 202 | 12.9 | 24.1 | 0.00 | 0.00 | 0.00 | 54 | 1008.2 |
| 20260504225005 | 22 | 190 | 6.4 | 22.5 | 0.00 | 0.00 | 0.00 | 53 | 1008.2 |
| 20260504224517 | 22 | 173 | 6.4 | 17.7 | 0.00 | 0.00 | 0.00 | 54 | 1008.2 |
| 20260504224009 | 22 | 179 | 9.7 | 20.9 | 0.00 | 0.00 | 0.00 | 53 | 1008.3 |
| 20260504223507 | 22 | 207 | 11.3 | 20.9 | 0.00 | 0.00 | 0.00 | 52 | 1008.3 |
| 20260504223020 | 22 | 189 | 4.8 | 22.5 | 0.00 | 0.00 | 0.00 | 53 | 1008.3 |
| 20260504222508 | 22 | 202 | 9.7 | 24.1 | 0.00 | 0.00 | 0.00 | 53 | 1008.5 |
| 20260504222008 | 22 | 184 | 11.3 | 24.1 | 0.00 | 0.00 | 0.00 | 52 | 1008.5 |
| 20260504221526 | 22 | 229 | 12.9 | 24.1 | 0.00 | 0.00 | 0.00 | 51 | 1008.5 |
| 20260504221009 | 22 | 144 | 11.3 | 25.7 | 0.00 | 0.00 | 0.00 | 51 | 1008.7 |
| 20260504220511 | 22 | 159 | 11.3 | 25.7 | 0.00 | 0.00 | 0.00 | 52 | 1008.7 |
| 20260504220016 | 22 | 192 | 12.9 | 29.0 | 0.00 | 0.00 | 0.00 | 51 | 1008.7 |
| 20260504215503 | 22 | 240 | 14.5 | 29.0 | 0.00 | 0.00 | 0.00 | 50 | 1008.7 |
| 20260504215004 | 22 | 207 | 14.5 | 24.1 | 0.00 | 0.00 | 0.00 | 50 | 1008.7 |
| 20260504214510 | 22 | 230 | 11.3 | 25.7 | 0.00 | 0.00 | 0.00 | 52 | 1008.8 |
| 20260504214004 | 22 | 186 | 11.3 | 30.6 | 0.00 | 0.00 | 0.00 | 50 | 1008.9 |
| 20260504213505 | 22 | 223 | 11.3 | 30.6 | 0.00 | 0.00 | 0.00 | 51 | 1008.9 |
| 20260504213012 | 22 | 191 | 14.5 | 32.2 | 0.00 | 0.00 | 0.00 | 48 | 1008.9 |
| 20260504212502 | 23 | 185 | 12.9 | 32.2 | 0.00 | 0.00 | 0.00 | 50 | 1009.0 |
| 20260504212001 | 23 | 211 | 11.3 | 25.7 | 0.00 | 0.00 | 0.00 | 51 | 1009.0 |
| 20260504211502 | 23 | 160 | 9.7 | 32.2 | 0.00 | 0.00 | 0.00 | 50 | 1009.0 |
| 20260504211002 | 23 | 225 | 12.9 | 30.6 | 0.00 | 0.00 | 0.00 | 49 | 1009.1 |
| 20260504210502 | 22 | 216 | 12.9 | 30.6 | 0.00 | 0.00 | 0.00 | 49 | 1009.1 |
| 20260504210008 | 22 | 227 | 17.7 | 30.6 | 0.00 | 0.00 | 0.00 | 50 | 1009.2 |
| 20260504205503 | 23 | 176 | 14.5 | 33.8 | 0.00 | 0.00 | 0.00 | 49 | 1009.1 |
| 20260504205007 | 23 | 150 | 14.5 | 33.8 | 0.00 | 0.00 | 0.00 | 47 | 1009.1 |
| 20260504204510 | 23 | 188 | 16.1 | 25.7 | 0.00 | 0.00 | 0.00 | 50 | 1009.3 |
| 20260504204003 | 23 | 217 | 14.5 | 27.4 | 0.00 | 0.00 | 0.00 | 49 | 1009.4 |
| 20260504203503 | 23 | 209 | 9.7 | 32.2 | 0.00 | 0.00 | 0.00 | 51 | 1009.5 |
| 20260504203020 | 23 | 222 | 14.5 | 32.2 | 0.00 | 0.00 | 0.00 | 51 | 1009.5 |
| 20260504202504 | 23 | 198 | 11.3 | 35.4 | 0.00 | 0.00 | 0.00 | 50 | 1009.5 |
| 20260504202006 | 23 | 228 | 16.1 | 35.4 | 0.00 | 0.00 | 0.00 | 51 | 1009.6 |
| 20260504201512 | 23 | 172 | 9.7 | 25.7 | 0.00 | 0.00 | 0.00 | 51 | 1009.6 |
| 20260504201005 | 23 | 171 | 12.9 | 33.8 | 0.00 | 0.00 | 0.00 | 51 | 1009.8 |
| 20260504200503 | 23 | 207 | 14.5 | 33.8 | 0.00 | 0.00 | 0.00 | 49 | 1009.9 |
| 20260504200015 | 23 | 203 | 8.0 | 33.8 | 0.00 | 0.00 | 0.00 | 48 | 1009.9 |
| 20260504195502 | 23 | 211 | 17.7 | 33.8 | 0.00 | 0.00 | 0.00 | 48 | 1009.8 |
| 20260504195002 | 23 | 192 | 11.3 | 29.0 | 0.00 | 0.00 | 0.00 | 50 | 1009.9 |
| 20260504194525 | 23 | 257 | 11.3 | 29.0 | 0.00 | 0.00 | 0.00 | 49 | 1009.9 |
| 20260504194003 | 23 | 232 | 16.1 | 32.2 | 0.00 | 0.00 | 0.00 | 50 | 1009.9 |
| 20260504193507 | 23 | 126 | 17.7 | 32.2 | 0.00 | 0.00 | 0.00 | 50 | 1009.9 |
| 20260504193018 | 23 | 187 | 11.3 | 27.4 | 0.00 | 0.00 | 0.00 | 51 | 1009.9 |
| 20260504192506 | 23 | 169 | 14.5 | 32.2 | 0.00 | 0.00 | 0.00 | 49 | 1009.9 |
| 20260504192008 | 23 | 167 | 19.3 | 35.4 | 0.00 | 0.00 | 0.00 | 49 | 1010.0 |
| 20260504191515 | 23 | 233 | 17.7 | 35.4 | 0.00 | 0.00 | 0.00 | 49 | 1010.0 |
| 20260504191004 | 23 | 193 | 12.9 | 35.4 | 0.00 | 0.00 | 0.00 | 51 | 1010.0 |
| 20260504190508 | 23 | 234 | 14.5 | 35.4 | 0.00 | 0.00 | 0.00 | 51 | 1010.2 |
| 20260504190003 | 22 | 191 | 14.5 | 30.6 | 0.00 | 0.00 | 0.00 | 50 | 1010.4 |
| 20260504185503 | 22 | 206 | 17.7 | 33.8 | 0.00 | 0.00 | 0.00 | 50 | 1010.3 |
| 20260504185003 | 22 | 219 | 16.1 | 33.8 | 0.00 | 0.00 | 0.00 | 51 | 1010.4 |
| 20260504184511 | 22 | 196 | 14.5 | 33.8 | 0.00 | 0.00 | 0.00 | 49 | 1010.4 |
| 20260504184006 | 22 | 191 | 17.7 | 38.6 | 0.00 | 0.00 | 0.00 | 50 | 1010.6 |
| 20260504183503 | 22 | 221 | 16.1 | 38.6 | 0.00 | 0.00 | 0.00 | 51 | 1010.6 |
| 20260504183012 | 22 | 167 | 9.7 | 29.0 | 0.00 | 0.00 | 0.00 | 54 | 1010.5 |
| 20260504182503 | 22 | 222 | 17.7 | 30.6 | 0.00 | 0.00 | 0.00 | 51 | 1010.6 |
| 20260504182007 | 22 | 217 | 16.1 | 33.8 | 0.00 | 0.00 | 0.00 | 52 | 1010.7 |
| 20260504181522 | 22 | 182 | 14.5 | 33.8 | 0.00 | 0.00 | 0.00 | 52 | 1010.7 |
| 20260504181010 | 22 | 152 | 12.9 | 27.4 | 0.00 | 0.00 | 0.00 | 53 | 1010.7 |
| 20260504180508 | 22 | 193 | 14.5 | 29.0 | 0.00 | 0.00 | 0.00 | 51 | 1010.8 |
| 20260504180021 | 22 | 225 | 14.5 | 29.0 | 0.00 | 0.00 | 0.00 | 50 | 1010.8 |
| 20260504175507 | 22 | 273 | 11.3 | 35.4 | 0.00 | 0.00 | 0.00 | 54 | 1010.9 |
| 20260504175005 | 22 | 180 | 12.9 | 35.4 | 0.00 | 0.00 | 0.00 | 52 | 1010.9 |
| 20260504174506 | 22 | 226 | 16.1 | 37.0 | 0.00 | 0.00 | 0.00 | 50 | 1011.0 |
| 20260504174003 | 21 | 232 | 17.7 | 37.0 | 0.00 | 0.00 | 0.00 | 51 | 1011.0 |
| 20260504173503 | 22 | 242 | 14.5 | 33.8 | 0.00 | 0.00 | 0.00 | 51 | 1011.1 |
| 20260504173016 | 21 | 181 | 19.3 | 33.8 | 0.00 | 0.00 | 0.00 | 52 | 1011.1 |
| 20260504172502 | 21 | 219 | 11.3 | 35.4 | 0.00 | 0.00 | 0.00 | 52 | 1011.1 |
| 20260504172006 | 22 | 142 | 12.9 | 35.4 | 0.00 | 0.00 | 0.00 | 51 | 1011.2 |
| 20260504171518 | 22 | 196 | 14.5 | 30.6 | 0.00 | 0.00 | 0.00 | 50 | 1011.2 |
| 20260504171012 | 21 | 209 | 12.9 | 30.6 | 0.00 | 0.00 | 0.00 | 51 | 1011.4 |
| 20260504170508 | 21 | 231 | 16.1 | 32.2 | 0.00 | 0.00 | 0.00 | 51 | 1011.4 |
| 20260504151006 | 20 | 163 | 12.9 | 30.6 | 0.00 | 0.00 | 0.00 | 53 | 1011.9 |
| 20260504150507 | 20 | 120 | 9.7 | 16.1 | 0.00 | 0.00 | 0.00 | 54 | 1012.0 |
| 20260504141012 | 18 | 233 | 16.1 | 37.0 | 0.00 | 0.00 | 0.00 | 56 | 1012.4 |
| 20260504140506 | 18 | 196 | 12.9 | 38.6 | 0.00 | 0.00 | 0.00 | 56 | 1012.4 |
| 20260504130512 | 16 | 219 | 12.9 | 20.9 | 0.00 | 0.00 | 0.00 | 58 | 1012.5 |